"Sample Date","Sample Time","Sensor Name","Sample Value","Units","Flow Rate","Sample Interval","Sample Volume","Laser Status","Number Channels","Micron Size 0","Counts/Channel 0","Micron Size 1","Counts/Channel 1","Micron Size 2","Counts/Channel 2","Micron Size 3","Counts/Channel 3","Micron Size 4","Counts/Channel 4","Micron Size 5","Counts/Channel 5","Micron Size 6","Counts/Channel 6","Micron Size 7","Counts/Channel 7","Micron Size 8","Counts/Channel 8","Micron Size 9","Counts/Channel 9","Micron Size 10","Counts/Channel 10","Micron Size 11","Counts/Channel 11","Micron Size 12","Counts/Channel 12","Micron Size 13","Counts/Channel 13","Micron Size 14","Counts/Channel 14","Micron Size 15","Counts/Channel 15","Micron Size 16","Counts/Channel 16","Micron Size 17","Counts/Channel 17","Micron Size 18","Counts/Channel 18","Micron Size 19","Counts/Channel 19","Micron Size 20","Counts/Channel 20","Micron Size 21","Counts/Channel 21","Micron Size 22","Counts/Channel 22","Micron Size 23","Counts/Channel 23","Micron Size 24","Counts/Channel 24","Micron Size 25","Counts/Channel 25","Micron Size 26","Counts/Channel 26","Micron Size 27","Counts/Channel 27","Micron Size 28","Counts/Channel 28","Micron Size 29","Counts/Channel 29","Micron Size 30","Counts/Channel 30","Micron Size 31","Counts/Channel 31"
"07/03/06","14:00:02","AMMA06",70441.000,"cc",28326.502,6.00,2832.650,1,6,0.100,34517.000,0.200,27089.000,0.300,5896.000,0.500,1781.000,1.000,1157.000,5.000,1.000
"07/03/06","14:00:08","AMMA06",70617.000,"cc",28335.518,6.00,2833.552,1,6,0.100,34825.000,0.200,26858.000,0.300,5897.000,0.500,1850.000,1.000,1187.000,5.000,0
"07/03/06","14:00:14","AMMA06",70505.000,"cc",28313.809,6.00,2831.381,1,6,0.100,34637.000,0.200,26936.000,0.300,5904.000,0.500,1861.000,1.000,1164.000,5.000,3.000
"07/03/06","14:00:20","AMMA06",70728.000,"cc",28327.359,6.00,2832.736,1,6,0.100,34519.000,0.200,27320.000,0.300,5928.000,0.500,1832.000,1.000,1128.000,5.000,1.000
"07/03/06","14:00:26","AMMA06",70585.000,"cc",28306.102,6.00,2830.610,1,6,0.100,34710.000,0.200,27020.000,0.300,5909.000,0.500,1771.000,1.000,1175.000,5.000,0
"07/03/06","14:00:32","AMMA06",70558.000,"cc",28342.186,6.00,2834.219,1,6,0.100,34790.000,0.200,26867.000,0.300,5937.000,0.500,1740.000,1.000,1223.000,5.000,1.000
"07/03/06","14:00:38","AMMA06",70398.000,"cc",28297.508,6.00,2829.751,1,6,0.100,34728.000,0.200,26881.000,0.300,5908.000,0.500,1700.000,1.000,1180.000,5.000,1.000
"07/03/06","14:00:44","AMMA06",71126.000,"cc",28335.699,6.00,2833.570,1,6,0.100,34894.000,0.200,27372.000,0.300,5900.000,0.500,1800.000,1.000,1160.000,5.000,0
"07/03/06","14:00:50","AMMA06",71136.000,"cc",28316.402,6.00,2831.640,1,6,0.100,35002.000,0.200,27173.000,0.300,5934.000,0.500,1848.000,1.000,1179.000,5.000,0
"07/03/06","14:00:56","AMMA06",70691.000,"cc",28283.184,6.00,2828.319,1,6,0.100,34757.000,0.200,27157.000,0.300,5889.000,0.500,1745.000,1.000,1142.000,5.000,1.000
"07/03/06","14:01:02","AMMA06",70904.000,"cc",28297.625,6.00,2829.763,1,6,0.100,35032.000,0.200,27073.000,0.300,5781.000,0.500,1834.000,1.000,1182.000,5.000,2.000
"07/03/06","14:01:08","AMMA06",70633.000,"cc",28371.061,6.00,2837.106,1,6,0.100,34647.000,0.200,27000.000,0.300,6049.000,0.500,1773.000,1.000,1163.000,5.000,1.000
"07/03/06","14:01:14","AMMA06",70624.000,"cc",28316.199,6.00,2831.620,1,6,0.100,34716.000,0.200,27058.000,0.300,5928.000,0.500,1776.000,1.000,1146.000,5.000,0
"07/03/06","14:01:20","AMMA06",70761.000,"cc",28278.707,6.00,2827.871,1,6,0.100,34831.000,0.200,27161.000,0.300,5835.000,0.500,1768.000,1.000,1166.000,5.000,0
"07/03/06","14:01:26","AMMA06",70753.000,"cc",28322.291,6.00,2832.229,1,6,0.100,34758.000,0.200,26953.000,0.300,6041.000,0.500,1841.000,1.000,1159.000,5.000,1.000
"07/03/06","14:01:32","AMMA06",70481.000,"cc",28295.928,6.00,2829.593,1,6,0.100,34733.000,0.200,27068.000,0.300,5821.000,0.500,1665.000,1.000,1193.000,5.000,1.000
"07/03/06","14:01:38","AMMA06",70785.000,"cc",28305.846,6.00,2830.585,1,6,0.100,34978.000,0.200,26938.000,0.300,5868.000,0.500,1788.000,1.000,1211.000,5.000,2.000
"07/03/06","14:01:44","AMMA06",70556.000,"cc",28349.467,6.00,2834.947,1,6,0.100,35076.000,0.200,26643.000,0.300,5784.000,0.500,1859.000,1.000,1192.000,5.000,2.000
"07/03/06","14:01:50","AMMA06",70601.000,"cc",28292.916,6.00,2829.292,1,6,0.100,35118.000,0.200,26776.000,0.300,5666.000,0.500,1839.000,1.000,1202.000,5.000,0
"07/03/06","14:01:56","AMMA06",70563.000,"cc",28364.473,6.00,2836.448,1,6,0.100,34964.000,0.200,26805.000,0.300,5849.000,0.500,1780.000,1.000,1165.000,5.000,0
"07/03/06","14:02:02","AMMA06",70375.000,"cc",28319.106,6.00,2831.911,1,6,0.100,35072.000,0.200,26590.000,0.300,5777.000,0.500,1726.000,1.000,1210.000,5.000,0
"07/03/06","14:02:08","AMMA06",70501.000,"cc",28287.330,6.00,2828.733,1,6,0.100,35205.000,0.200,26821.000,0.300,5567.000,0.500,1727.000,1.000,1179.000,5.000,2.000
"07/03/06","14:02:14","AMMA06",70937.000,"cc",28307.789,6.00,2830.779,1,6,0.100,35493.000,0.200,26616.000,0.300,5831.000,0.500,1792.000,1.000,1203.000,5.000,2.000
"07/03/06","14:02:20","AMMA06",70291.000,"cc",28306.016,6.00,2830.602,1,6,0.100,35133.000,0.200,26474.000,0.300,5697.000,0.500,1819.000,1.000,1166.000,5.000,2.000
"07/03/06","14:02:26","AMMA06",70813.000,"cc",28313.535,6.00,2831.354,1,6,0.100,35190.000,0.200,26829.000,0.300,5793.000,0.500,1787.000,1.000,1213.000,5.000,1.000
"07/03/06","14:02:32","AMMA06",70504.000,"cc",28348.565,6.00,2834.857,1,6,0.100,35156.000,0.200,26754.000,0.300,5648.000,0.500,1766.000,1.000,1179.000,5.000,1.000
"07/03/06","14:02:38","AMMA06",70526.000,"cc",28326.986,6.00,2832.699,1,6,0.100,35133.000,0.200,26811.000,0.300,5682.000,0.500,1790.000,1.000,1110.000,5.000,0
"07/03/06","14:02:44","AMMA06",69403.000,"cc",28308.680,6.00,2830.868,1,6,0.100,34718.000,0.200,26282.000,0.300,5465.000,0.500,1797.000,1.000,1140.000,5.000,1.000
"07/03/06","14:02:50","AMMA06",70408.000,"cc",28330.674,6.00,2833.068,1,6,0.100,35164.000,0.200,26635.000,0.300,5657.000,0.500,1800.000,1.000,1150.000,5.000,2.000
"07/03/06","14:02:56","AMMA06",69733.000,"cc",28303.133,6.00,2830.314,1,6,0.100,35057.000,0.200,26336.000,0.300,5521.000,0.500,1726.000,1.000,1093.000,5.000,0
"07/03/06","14:03:02","AMMA06",69686.000,"cc",28327.701,6.00,2832.770,1,6,0.100,34863.000,0.200,26324.000,0.300,5564.000,0.500,1782.000,1.000,1152.000,5.000,1.000
"07/03/06","14:03:08","AMMA06",70463.000,"cc",28318.295,6.00,2831.830,1,6,0.100,35377.000,0.200,26470.000,0.300,5695.000,0.500,1750.000,1.000,1171.000,5.000,0
"07/03/06","14:03:14","AMMA06",70195.000,"cc",28308.123,6.00,2830.813,1,6,0.100,34992.000,0.200,26758.000,0.300,5560.000,0.500,1782.000,1.000,1102.000,5.000,1.000
"07/03/06","14:03:20","AMMA06",69769.000,"cc",28290.211,6.00,2829.021,1,6,0.100,34854.000,0.200,26227.000,0.300,5749.000,0.500,1780.000,1.000,1159.000,5.000,0
"07/03/06","14:03:26","AMMA06",69738.000,"cc",28326.268,6.00,2832.627,1,6,0.100,34540.000,0.200,26614.000,0.300,5599.000,0.500,1793.000,1.000,1192.000,5.000,0
"07/03/06","14:03:32","AMMA06",69757.000,"cc",28315.488,6.00,2831.549,1,6,0.100,34752.000,0.200,26506.000,0.300,5487.000,0.500,1837.000,1.000,1169.000,5.000,6.000
"07/03/06","14:03:38","AMMA06",70653.000,"cc",28312.895,6.00,2831.290,1,6,0.100,35329.000,0.200,26808.000,0.300,5594.000,0.500,1770.000,1.000,1152.000,5.000,0
"07/03/06","14:03:44","AMMA06",70508.000,"cc",28338.760,6.00,2833.876,1,6,0.100,35119.000,0.200,26819.000,0.300,5584.000,0.500,1825.000,1.000,1160.000,5.000,1.000
"07/03/06","14:03:50","AMMA06",70263.000,"cc",28305.037,6.00,2830.504,1,6,0.100,34662.000,0.200,26882.000,0.300,5713.000,0.500,1868.000,1.000,1136.000,5.000,2.000
"07/03/06","14:03:56","AMMA06",70469.000,"cc",28293.486,6.00,2829.349,1,6,0.100,35275.000,0.200,26510.000,0.300,5785.000,0.500,1748.000,1.000,1151.000,5.000,0
"07/03/06","14:04:02","AMMA06",69901.000,"cc",28324.389,6.00,2832.439,1,6,0.100,34883.000,0.200,26386.000,0.300,5699.000,0.500,1782.000,1.000,1149.000,5.000,2.000
"07/03/06","14:04:08","AMMA06",69789.000,"cc",28326.059,6.00,2832.606,1,6,0.100,34829.000,0.200,26415.000,0.300,5695.000,0.500,1723.000,1.000,1124.000,5.000,3.000
"07/03/06","14:04:14","AMMA06",70029.000,"cc",28294.184,6.00,2829.419,1,6,0.100,34925.000,0.200,26501.000,0.300,5645.000,0.500,1854.000,1.000,1101.000,5.000,3.000
"07/03/06","14:04:20","AMMA06",70537.000,"cc",28309.922,6.00,2830.992,1,6,0.100,35227.000,0.200,26712.000,0.300,5662.000,0.500,1742.000,1.000,1191.000,5.000,3.000
"07/03/06","14:04:26","AMMA06",70534.000,"cc",28332.156,6.00,2833.216,1,6,0.100,35397.000,0.200,26590.000,0.300,5605.000,0.500,1740.000,1.000,1199.000,5.000,3.000
"07/03/06","14:04:32","AMMA06",70178.000,"cc",28351.074,6.00,2835.108,1,6,0.100,34781.000,0.200,26762.000,0.300,5703.000,0.500,1787.000,1.000,1144.000,5.000,1.000
"07/03/06","14:04:38","AMMA06",70099.000,"cc",28344.703,6.00,2834.471,1,6,0.100,34895.000,0.200,26591.000,0.300,5679.000,0.500,1740.000,1.000,1194.000,5.000,0
"07/03/06","14:04:44","AMMA06",69815.000,"cc",28281.834,6.00,2828.184,1,6,0.100,34968.000,0.200,26391.000,0.300,5537.000,0.500,1774.000,1.000,1144.000,5.000,1.000
"07/03/06","14:04:50","AMMA06",70232.000,"cc",28265.856,6.00,2826.586,1,6,0.100,35130.000,0.200,26627.000,0.300,5577.000,0.500,1775.000,1.000,1122.000,5.000,1.000
"07/03/06","14:04:56","AMMA06",69596.000,"cc",28381.971,6.00,2838.197,1,6,0.100,34556.000,0.200,26418.000,0.300,5713.000,0.500,1792.000,1.000,1117.000,5.000,0
"07/03/06","14:05:02","AMMA06",70297.000,"cc",28298.311,6.00,2829.831,1,6,0.100,34762.000,0.200,26747.000,0.300,5720.000,0.500,1874.000,1.000,1194.000,5.000,0
"07/03/06","14:05:08","AMMA06",70125.000,"cc",28325.703,6.00,2832.571,1,6,0.100,34994.000,0.200,26610.000,0.300,5571.000,0.500,1758.000,1.000,1188.000,5.000,4.000
"07/03/06","14:05:14","AMMA06",70463.000,"cc",28267.830,6.00,2826.783,1,6,0.100,35054.000,0.200,26821.000,0.300,5633.000,0.500,1783.000,1.000,1172.000,5.000,0
"07/03/06","14:05:20","AMMA06",70699.000,"cc",28281.764,6.00,2828.177,1,6,0.100,34937.000,0.200,26981.000,0.300,5797.000,0.500,1820.000,1.000,1164.000,5.000,0
"07/03/06","14:05:26","AMMA06",70484.000,"cc",28340.455,6.00,2834.046,1,6,0.100,34850.000,0.200,26875.000,0.300,5748.000,0.500,1816.000,1.000,1193.000,5.000,2.000
"07/03/06","14:05:32","AMMA06",69764.000,"cc",28371.297,6.00,2837.130,1,6,0.100,35013.000,0.200,26111.000,0.300,5705.000,0.500,1747.000,1.000,1187.000,5.000,1.000
"07/03/06","14:05:38","AMMA06",70664.000,"cc",28365.711,6.00,2836.571,1,6,0.100,35173.000,0.200,26760.000,0.300,5701.000,0.500,1867.000,1.000,1162.000,5.000,1.000
"07/03/06","14:05:44","AMMA06",70191.000,"cc",28274.469,6.00,2827.447,1,6,0.100,34994.000,0.200,26562.000,0.300,5718.000,0.500,1770.000,1.000,1147.000,5.000,0
"07/03/06","14:05:50","AMMA06",70535.000,"cc",28267.563,6.00,2826.756,1,6,0.100,35020.000,0.200,26931.000,0.300,5680.000,0.500,1758.000,1.000,1145.000,5.000,1.000
"07/03/06","14:05:56","AMMA06",70708.000,"cc",28281.998,6.00,2828.200,1,6,0.100,35329.000,0.200,26662.000,0.300,5860.000,0.500,1733.000,1.000,1123.000,5.000,1.000
"07/03/06","14:06:02","AMMA06",71243.000,"cc",28317.553,6.00,2831.755,1,6,0.100,35515.000,0.200,27070.000,0.300,5713.000,0.500,1789.000,1.000,1156.000,5.000,0
"07/03/06","14:06:08","AMMA06",70851.000,"cc",28360.723,6.00,2836.073,1,6,0.100,35341.000,0.200,26789.000,0.300,5713.000,0.500,1830.000,1.000,1178.000,5.000,0
"07/03/06","14:06:14","AMMA06",71023.000,"cc",28312.324,6.00,2831.233,1,6,0.100,35190.000,0.200,27004.000,0.300,5917.000,0.500,1762.000,1.000,1149.000,5.000,1.000
"07/03/06","14:06:20","AMMA06",70935.000,"cc",28296.625,6.00,2829.663,1,6,0.100,35293.000,0.200,26937.000,0.300,5746.000,0.500,1789.000,1.000,1169.000,5.000,1.000
"07/03/06","14:06:26","AMMA06",69982.000,"cc",28320.648,6.00,2832.065,1,6,0.100,34551.000,0.200,26740.000,0.300,5731.000,0.500,1764.000,1.000,1195.000,5.000,1.000
"07/03/06","14:06:32","AMMA06",70855.000,"cc",28357.094,6.00,2835.710,1,6,0.100,35101.000,0.200,26926.000,0.300,5898.000,0.500,1788.000,1.000,1141.000,5.000,1.000
"07/03/06","14:06:38","AMMA06",70905.000,"cc",28294.145,6.00,2829.415,1,6,0.100,35274.000,0.200,27016.000,0.300,5723.000,0.500,1719.000,1.000,1173.000,5.000,0
"07/03/06","14:06:44","AMMA06",70690.000,"cc",28342.311,6.00,2834.231,1,6,0.100,35125.000,0.200,26943.000,0.300,5753.000,0.500,1777.000,1.000,1091.000,5.000,1.000
"07/03/06","14:06:50","AMMA06",70138.000,"cc",28342.545,6.00,2834.255,1,6,0.100,34638.000,0.200,26832.000,0.300,5787.000,0.500,1766.000,1.000,1115.000,5.000,0
"07/03/06","14:06:56","AMMA06",70782.000,"cc",28337.949,6.00,2833.795,1,6,0.100,35098.000,0.200,26820.000,0.300,5883.000,0.500,1762.000,1.000,1218.000,5.000,1.000
"07/03/06","14:07:02","AMMA06",69979.000,"cc",28310.147,6.00,2831.015,1,6,0.100,34602.000,0.200,26574.000,0.300,5784.000,0.500,1793.000,1.000,1225.000,5.000,1.000
"07/03/06","14:07:08","AMMA06",70395.000,"cc",28287.400,6.00,2828.740,1,6,0.100,35007.000,0.200,26568.000,0.300,5816.000,0.500,1813.000,1.000,1189.000,5.000,2.000
"07/03/06","14:07:14","AMMA06",70582.000,"cc",28295.596,6.00,2829.560,1,6,0.100,35038.000,0.200,26726.000,0.300,5855.000,0.500,1783.000,1.000,1180.000,5.000,0
"07/03/06","14:07:20","AMMA06",70472.000,"cc",28353.018,6.00,2835.302,1,6,0.100,35075.000,0.200,26675.000,0.300,5778.000,0.500,1821.000,1.000,1122.000,5.000,1.000
"07/03/06","14:07:26","AMMA06",70799.000,"cc",28299.559,6.00,2829.956,1,6,0.100,35196.000,0.200,27065.000,0.300,5624.000,0.500,1736.000,1.000,1178.000,5.000,0
"07/03/06","14:07:32","AMMA06",70933.000,"cc",28293.336,6.00,2829.334,1,6,0.100,35117.000,0.200,26996.000,0.300,5752.000,0.500,1809.000,1.000,1257.000,5.000,2.000
"07/03/06","14:07:38","AMMA06",70530.000,"cc",28305.854,6.00,2830.585,1,6,0.100,34933.000,0.200,26924.000,0.300,5788.000,0.500,1803.000,1.000,1082.000,5.000,0
"07/03/06","14:07:44","AMMA06",70363.000,"cc",28346.637,6.00,2834.664,1,6,0.100,34867.000,0.200,26740.000,0.300,5806.000,0.500,1770.000,1.000,1179.000,5.000,1.000
"07/03/06","14:07:50","AMMA06",70295.000,"cc",28351.387,6.00,2835.139,1,6,0.100,34844.000,0.200,26773.000,0.300,5772.000,0.500,1774.000,1.000,1131.000,5.000,1.000
"07/03/06","14:07:56","AMMA06",70747.000,"cc",28335.371,6.00,2833.537,1,6,0.100,34961.000,0.200,26944.000,0.300,5897.000,0.500,1744.000,1.000,1201.000,5.000,0
"07/03/06","14:08:02","AMMA06",70561.000,"cc",28307.440,6.00,2830.744,1,6,0.100,34826.000,0.200,26971.000,0.300,5883.000,0.500,1704.000,1.000,1176.000,5.000,1.000
"07/03/06","14:08:08","AMMA06",70954.000,"cc",28294.996,6.00,2829.500,1,6,0.100,35078.000,0.200,27086.000,0.300,5880.000,0.500,1771.000,1.000,1139.000,5.000,0
"07/03/06","14:08:14","AMMA06",70343.000,"cc",28316.553,6.00,2831.656,1,6,0.100,34638.000,0.200,26892.000,0.300,5838.000,0.500,1801.000,1.000,1173.000,5.000,1.000
"07/03/06","14:08:20","AMMA06",70749.000,"cc",28316.953,6.00,2831.696,1,6,0.100,34876.000,0.200,26901.000,0.300,5966.000,0.500,1825.000,1.000,1179.000,5.000,2.000
"07/03/06","14:08:26","AMMA06",70663.000,"cc",28331.316,6.00,2833.132,1,6,0.100,34932.000,0.200,26947.000,0.300,5838.000,0.500,1750.000,1.000,1196.000,5.000,0
"07/03/06","14:08:32","AMMA06",69966.000,"cc",28316.051,6.00,2831.605,1,6,0.100,34529.000,0.200,26643.000,0.300,5848.000,0.500,1763.000,1.000,1183.000,5.000,0
"07/03/06","14:08:38","AMMA06",70945.000,"cc",28322.047,6.00,2832.205,1,6,0.100,35167.000,0.200,27078.000,0.300,5792.000,0.500,1796.000,1.000,1112.000,5.000,0
"07/03/06","14:08:44","AMMA06",71146.000,"cc",28333.690,6.00,2833.369,1,6,0.100,35033.000,0.200,27195.000,0.300,5941.000,0.500,1763.000,1.000,1211.000,5.000,3.000
"07/03/06","14:08:50","AMMA06",70501.000,"cc",28314.912,6.00,2831.492,1,6,0.100,34954.000,0.200,26882.000,0.300,5746.000,0.500,1761.000,1.000,1158.000,5.000,0
"07/03/06","14:08:56","AMMA06",70498.000,"cc",28347.330,6.00,2834.733,1,6,0.100,34980.000,0.200,26838.000,0.300,5770.000,0.500,1740.000,1.000,1170.000,5.000,0
"07/03/06","14:09:02","AMMA06",70208.000,"cc",28328.607,6.00,2832.861,1,6,0.100,34709.000,0.200,26732.000,0.300,5910.000,0.500,1679.000,1.000,1177.000,5.000,1.000
"07/03/06","14:09:08","AMMA06",70635.000,"cc",28321.258,6.00,2832.126,1,6,0.100,34959.000,0.200,26919.000,0.300,5840.000,0.500,1786.000,1.000,1131.000,5.000,0
"07/03/06","14:09:14","AMMA06",70281.000,"cc",28252.217,6.00,2825.222,1,6,0.100,34812.000,0.200,26742.000,0.300,5750.000,0.500,1767.000,1.000,1208.000,5.000,2.000
"07/03/06","14:09:20","AMMA06",70406.000,"cc",28343.145,6.00,2834.315,1,6,0.100,34681.000,0.200,26946.000,0.300,5882.000,0.500,1761.000,1.000,1134.000,5.000,2.000
"07/03/06","14:09:26","AMMA06",70728.000,"cc",28279.160,6.00,2827.916,1,6,0.100,35149.000,0.200,26702.000,0.300,5927.000,0.500,1817.000,1.000,1132.000,5.000,1.000
"07/03/06","14:09:32","AMMA06",70880.000,"cc",28307.035,6.00,2830.704,1,6,0.100,35303.000,0.200,26956.000,0.300,5757.000,0.500,1755.000,1.000,1108.000,5.000,1.000
"07/03/06","14:09:38","AMMA06",70429.000,"cc",28319.119,6.00,2831.912,1,6,0.100,34876.000,0.200,26953.000,0.300,5701.000,0.500,1725.000,1.000,1174.000,5.000,0
"07/03/06","14:09:44","AMMA06",70505.000,"cc",28297.881,6.00,2829.788,1,6,0.100,35123.000,0.200,26764.000,0.300,5689.000,0.500,1813.000,1.000,1115.000,5.000,1.000
"07/03/06","14:09:50","AMMA06",71139.000,"cc",28339.721,6.00,2833.972,1,6,0.100,35525.000,0.200,26895.000,0.300,5792.000,0.500,1776.000,1.000,1149.000,5.000,2.000
"07/03/06","14:09:56","AMMA06",70790.000,"cc",28284.481,6.00,2828.448,1,6,0.100,35469.000,0.200,26744.000,0.300,5741.000,0.500,1692.000,1.000,1144.000,5.000,0
"07/03/06","14:10:02","AMMA06",70506.000,"cc",28290.438,6.00,2829.044,1,6,0.100,35097.000,0.200,26788.000,0.300,5712.000,0.500,1782.000,1.000,1127.000,5.000,0
"07/03/06","14:10:08","AMMA06",70054.000,"cc",28366.231,6.00,2836.623,1,6,0.100,34890.000,0.200,26640.000,0.300,5663.000,0.500,1727.000,1.000,1133.000,5.000,1.000
"07/03/06","14:10:14","AMMA06",70478.000,"cc",28318.815,6.00,2831.882,1,6,0.100,35047.000,0.200,26898.000,0.300,5670.000,0.500,1714.000,1.000,1148.000,5.000,1.000
"07/03/06","14:10:20","AMMA06",70980.000,"cc",28368.172,6.00,2836.817,1,6,0.100,35131.000,0.200,27132.000,0.300,5668.000,0.500,1832.000,1.000,1216.000,5.000,1.000
"07/03/06","14:10:26","AMMA06",70377.000,"cc",28338.668,6.00,2833.867,1,6,0.100,35027.000,0.200,26666.000,0.300,5724.000,0.500,1833.000,1.000,1126.000,5.000,1.000
"07/03/06","14:10:32","AMMA06",70627.000,"cc",28256.236,6.00,2825.624,1,6,0.100,34970.000,0.200,26953.000,0.300,5775.000,0.500,1758.000,1.000,1171.000,5.000,0
"07/03/06","14:10:38","AMMA06",70526.000,"cc",28287.986,6.00,2828.799,1,6,0.100,35177.000,0.200,27007.000,0.300,5559.000,0.500,1674.000,1.000,1109.000,5.000,0
"07/03/06","14:10:44","AMMA06",70410.000,"cc",28348.863,6.00,2834.887,1,6,0.100,34917.000,0.200,26842.000,0.300,5686.000,0.500,1758.000,1.000,1207.000,5.000,0
"07/03/06","14:10:50","AMMA06",70342.000,"cc",28319.145,6.00,2831.915,1,6,0.100,35143.000,0.200,26723.000,0.300,5518.000,0.500,1766.000,1.000,1191.000,5.000,1.000
"07/03/06","14:10:56","AMMA06",70785.000,"cc",28351.908,6.00,2835.191,1,6,0.100,35425.000,0.200,26847.000,0.300,5600.000,0.500,1765.000,1.000,1148.000,5.000,0
"07/03/06","14:11:02","AMMA06",70912.000,"cc",28286.481,6.00,2828.648,1,6,0.100,35285.000,0.200,26851.000,0.300,5768.000,0.500,1864.000,1.000,1143.000,5.000,1.000
"07/03/06","14:11:08","AMMA06",70353.000,"cc",28323.465,6.00,2832.347,1,6,0.100,35263.000,0.200,26718.000,0.300,5557.000,0.500,1675.000,1.000,1138.000,5.000,2.000
"07/03/06","14:11:14","AMMA06",70608.000,"cc",28274.264,6.00,2827.427,1,6,0.100,35283.000,0.200,26727.000,0.300,5670.000,0.500,1832.000,1.000,1095.000,5.000,1.000
"07/03/06","14:11:20","AMMA06",70334.000,"cc",28335.570,6.00,2833.557,1,6,0.100,35321.000,0.200,26438.000,0.300,5610.000,0.500,1787.000,1.000,1178.000,5.000,0
"07/03/06","14:11:26","AMMA06",69951.000,"cc",28287.975,6.00,2828.798,1,6,0.100,35097.000,0.200,26346.000,0.300,5604.000,0.500,1768.000,1.000,1136.000,5.000,0
"07/03/06","14:11:32","AMMA06",70455.000,"cc",28302.098,6.00,2830.210,1,6,0.100,35357.000,0.200,26722.000,0.300,5428.000,0.500,1799.000,1.000,1149.000,5.000,0
"07/03/06","14:11:38","AMMA06",70183.000,"cc",28330.625,6.00,2833.063,1,6,0.100,35300.000,0.200,26365.000,0.300,5625.000,0.500,1741.000,1.000,1151.000,5.000,1.000
"07/03/06","14:11:44","AMMA06",69871.000,"cc",28375.928,6.00,2837.593,1,6,0.100,35132.000,0.200,26516.000,0.300,5422.000,0.500,1717.000,1.000,1083.000,5.000,1.000
"07/03/06","14:11:50","AMMA06",70215.000,"cc",28272.076,6.00,2827.208,1,6,0.100,35446.000,0.200,26403.000,0.300,5411.000,0.500,1811.000,1.000,1144.000,5.000,0
"07/03/06","14:11:56","AMMA06",70198.000,"cc",28304.793,6.00,2830.480,1,6,0.100,35281.000,0.200,26536.000,0.300,5534.000,0.500,1706.000,1.000,1138.000,5.000,3.000
"07/03/06","14:12:02","AMMA06",70386.000,"cc",28320.459,6.00,2832.046,1,6,0.100,35306.000,0.200,26633.000,0.300,5558.000,0.500,1801.000,1.000,1086.000,5.000,2.000
"07/03/06","14:12:08","AMMA06",69786.000,"cc",28288.611,6.00,2828.861,1,6,0.100,34929.000,0.200,26362.000,0.300,5607.000,0.500,1751.000,1.000,1137.000,5.000,0
"07/03/06","14:12:14","AMMA06",69547.000,"cc",28305.629,6.00,2830.563,1,6,0.100,34738.000,0.200,26430.000,0.300,5452.000,0.500,1778.000,1.000,1148.000,5.000,1.000
"07/03/06","14:12:20","AMMA06",70244.000,"cc",28320.201,6.00,2832.020,1,6,0.100,35434.000,0.200,26651.000,0.300,5441.000,0.500,1654.000,1.000,1063.000,5.000,1.000
"07/03/06","14:12:26","AMMA06",69919.000,"cc",28317.266,6.00,2831.727,1,6,0.100,34950.000,0.200,26458.000,0.300,5557.000,0.500,1809.000,1.000,1143.000,5.000,2.000
"07/03/06","14:12:32","AMMA06",70710.000,"cc",28292.959,6.00,2829.296,1,6,0.100,35651.000,0.200,26482.000,0.300,5542.000,0.500,1880.000,1.000,1154.000,5.000,1.000
"07/03/06","14:12:38","AMMA06",70567.000,"cc",28301.822,6.00,2830.182,1,6,0.100,35528.000,0.200,26675.000,0.300,5498.000,0.500,1727.000,1.000,1137.000,5.000,2.000
"07/03/06","14:12:44","AMMA06",70512.000,"cc",28329.658,6.00,2832.966,1,6,0.100,35591.000,0.200,26534.000,0.300,5533.000,0.500,1787.000,1.000,1065.000,5.000,2.000
"07/03/06","14:12:50","AMMA06",70548.000,"cc",28370.014,6.00,2837.002,1,6,0.100,35248.000,0.200,26611.000,0.300,5551.000,0.500,1928.000,1.000,1209.000,5.000,1.000
"07/03/06","14:12:56","AMMA06",70468.000,"cc",28297.881,6.00,2829.788,1,6,0.100,35320.000,0.200,26641.000,0.300,5535.000,0.500,1805.000,1.000,1166.000,5.000,1.000
"07/03/06","14:13:02","AMMA06",69782.000,"cc",28297.318,6.00,2829.732,1,6,0.100,35209.000,0.200,26248.000,0.300,5397.000,0.500,1776.000,1.000,1152.000,5.000,0
"07/03/06","14:13:08","AMMA06",70371.000,"cc",28301.397,6.00,2830.140,1,6,0.100,35050.000,0.200,26701.000,0.300,5587.000,0.500,1857.000,1.000,1176.000,5.000,0
"07/03/06","14:13:14","AMMA06",70160.000,"cc",28373.598,6.00,2837.360,1,6,0.100,35270.000,0.200,26345.000,0.300,5657.000,0.500,1794.000,1.000,1094.000,5.000,0
"07/03/06","14:13:20","AMMA06",70445.000,"cc",28290.135,6.00,2829.014,1,6,0.100,35154.000,0.200,26686.000,0.300,5687.000,0.500,1760.000,1.000,1156.000,5.000,2.000
"07/03/06","14:13:26","AMMA06",70027.000,"cc",28330.670,6.00,2833.067,1,6,0.100,35150.000,0.200,26375.000,0.300,5653.000,0.500,1755.000,1.000,1091.000,5.000,3.000
"07/03/06","14:13:32","AMMA06",70068.000,"cc",28338.572,6.00,2833.857,1,6,0.100,35255.000,0.200,26284.000,0.300,5588.000,0.500,1832.000,1.000,1108.000,5.000,1.000
"07/03/06","14:13:38","AMMA06",70256.000,"cc",28267.838,6.00,2826.784,1,6,0.100,35264.000,0.200,26562.000,0.300,5602.000,0.500,1710.000,1.000,1117.000,5.000,1.000
"07/03/06","14:13:44","AMMA06",70015.000,"cc",28289.932,6.00,2828.993,1,6,0.100,34874.000,0.200,26546.000,0.300,5746.000,0.500,1724.000,1.000,1125.000,5.000,0
"07/03/06","14:13:50","AMMA06",70429.000,"cc",28343.648,6.00,2834.365,1,6,0.100,35270.000,0.200,26519.000,0.300,5690.000,0.500,1789.000,1.000,1160.000,5.000,1.000